Weather History for Alva, OK

Change the Weather History Date:

Tuesday, September 3, 2013

  Actual Average Record
Temperature  
Mean Temperature 75 °F -  
Max Temperature 91 °F 91 °F 107 °F (1954)
Min Temperature 59 °F 65 °F 46 °F (1974)
Cooling Degree Days 10    
Growing Degree Days 25 (Base 50)    
Moisture  
Dew Point 56 °F    
Average Humidity 53    
Maximum Humidity 88    
Minimum Humidity 28    
Precipitation  
Precipitation 0.00 in - - ()
Sea Level Pressure  
Sea Level Pressure 30.07 in    
Wind  
Wind Speed 4 mph (SSE)    
Max Wind Speed 14 mph    
Max Gust Speed -    
Visibility 10 miles    
Events Rain    
Averages and records for this station are not official NWS values.
T = Trace of Precipitation, MM = Missing Value Source: NWS Daily Summary

Daily Weather History Graph

Daily Weather History Graph

Search for Another Location

Airport:

Trip Planner

Search our weather history database for the weather conditions in past years. The results will help you decide how hot, cold, wet, or windy it might be!

Date:

Astronomy

Sep. 03, 2013 Rise Set
Actual Time 7:07 AM CDT 7:59 PM CDT
Civil Twilight 6:41 AM CDT 8:25 PM CDT
Nautical Twilight 6:09 AM CDT 8:57 PM CDT
Astronomical Twilight 5:37 AM CDT 9:29 PM CDT
Moon 5:24 AM CDT (9/3) 6:47 PM CDT (9/3)
Length of Visible Light 13h 44m
Length of Day
12h 52m
Waning Crescent, 3% of the Moon is Illuminated
Sep 3
Waning Crescent
Sep 5
New
Sep 12
First Quarter
Sep 19
Full
Sep 26
Last Quarter

Hourly Weather History & Observations

Time (CDT) Temp. Heat Index Dew Point Humidity Pressure Visibility Wind Dir Wind Speed Gust Speed Precip Events Conditions
12:10 AM 71.6 °F - 55.4 °F 57% 30.06 in 10.0 mi ENE 4.6 mph - N/A   Clear
12:30 AM 69.8 °F - 55.4 °F 60% 30.06 in 10.0 mi ENE 5.8 mph - N/A   Clear
12:50 AM 71.6 °F - 55.4 °F 57% 30.06 in 10.0 mi ENE 3.5 mph - N/A   Clear
1:10 AM 68.0 °F - 55.4 °F 64% 30.06 in 10.0 mi Calm Calm - N/A   Clear
1:30 AM 66.2 °F - 53.6 °F 64% 30.06 in 10.0 mi Calm Calm - N/A   Clear
1:50 AM 66.2 °F - 55.4 °F 68% 30.07 in 10.0 mi Calm Calm - N/A   Clear
2:10 AM 64.4 °F - 53.6 °F 68% 30.07 in 10.0 mi Calm Calm - N/A   Clear
2:35 AM 66.2 °F - 55.4 °F 68% 30.07 in 10.0 mi Calm Calm - N/A   Clear
2:50 AM 66.2 °F - 55.4 °F 68% 30.07 in 10.0 mi Calm Calm - N/A   Clear
3:10 AM 66.2 °F - 55.4 °F 68% 30.06 in 10.0 mi Calm Calm - N/A   Clear
3:30 AM 66.2 °F - 55.4 °F 68% 30.07 in 10.0 mi Calm Calm - N/A   Clear
3:50 AM 64.4 °F - 55.4 °F 73% 30.07 in 10.0 mi Calm Calm - N/A   Clear
4:10 AM 64.4 °F - 55.4 °F 73% 30.07 in 10.0 mi Calm Calm - N/A   Clear
4:30 AM 64.4 °F - 55.4 °F 73% 30.06 in 10.0 mi ENE 5.8 mph - N/A   Clear
4:50 AM 62.6 °F - 55.4 °F 77% 30.07 in 10.0 mi Calm Calm - N/A   Clear
5:10 AM 59.0 °F - 53.6 °F 82% 30.07 in 10.0 mi Calm Calm - N/A   Clear
5:30 AM 62.6 °F - 55.4 °F 77% 30.08 in 10.0 mi NE 3.5 mph - N/A   Partly Cloudy
5:50 AM 62.6 °F - 55.4 °F 77% 30.08 in 10.0 mi NNE 4.6 mph - N/A   Partly Cloudy
6:10 AM 60.8 °F - 55.4 °F 82% 30.08 in 10.0 mi North 4.6 mph - N/A   Clear
6:30 AM 60.8 °F - 55.4 °F 82% 30.09 in 10.0 mi North 5.8 mph - N/A   Clear
6:50 AM 60.8 °F - 55.4 °F 82% 30.09 in 10.0 mi North 5.8 mph - N/A   Clear
7:10 AM 59.0 °F - 55.4 °F 88% 30.10 in 10.0 mi Calm Calm - N/A   Clear
7:30 AM 60.8 °F - 55.4 °F 82% 30.11 in 10.0 mi NNE 4.6 mph - N/A   Clear
7:50 AM 62.6 °F - 57.2 °F 82% 30.11 in 10.0 mi NNE 4.6 mph - N/A   Clear
8:15 AM 64.4 °F - 57.2 °F 77% 30.12 in 10.0 mi NE 4.6 mph - N/A   Clear
8:30 AM 66.2 °F - 57.2 °F 73% 30.11 in 10.0 mi ENE 4.6 mph - N/A   Clear
8:50 AM 68.0 °F - 59.0 °F 73% 30.12 in 9.0 mi Calm Calm - N/A   Clear
9:10 AM 71.6 °F - 59.0 °F 64% 30.12 in 9.0 mi Calm Calm - N/A   Clear
9:30 AM 73.4 °F - 59.0 °F 61% 30.12 in 10.0 mi Calm Calm - N/A   Clear
9:50 AM 75.2 °F - 59.0 °F 57% 30.13 in 10.0 mi Calm Calm - N/A   Clear
10:15 AM 77.0 °F - 59.0 °F 54% 30.13 in 10.0 mi WSW 4.6 mph - N/A   Clear
10:30 AM 77.0 °F - 59.0 °F 54% 30.13 in 10.0 mi SW 3.5 mph - N/A   Clear
10:50 AM 78.8 °F - 59.0 °F 51% 30.13 in 10.0 mi SSW 8.1 mph - N/A   Clear
11:10 AM 80.6 °F 81.1 °F 59.0 °F 48% 30.12 in 10.0 mi WSW 6.9 mph - N/A   Clear
11:30 AM 80.6 °F 81.1 °F 59.0 °F 48% 30.12 in 10.0 mi SSE 6.9 mph - N/A   Clear
11:50 AM 82.4 °F 82.5 °F 59.0 °F 45% 30.12 in 10.0 mi WSW 3.5 mph - N/A   Clear
12:15 PM 82.4 °F 82.5 °F 59.0 °F 45% 30.12 in 10.0 mi SW 8.1 mph - N/A   Clear
12:30 PM 84.2 °F 83.8 °F 59.0 °F 42% 30.11 in 10.0 mi SW 8.1 mph - N/A   Clear
12:50 PM 84.2 °F 83.5 °F 57.2 °F 40% 30.10 in 10.0 mi WSW 3.5 mph - N/A   Clear
1:10 PM 84.2 °F 83.5 °F 57.2 °F 40% 30.10 in 10.0 mi SE 8.1 mph - N/A   Clear
1:30 PM 84.2 °F 83.5 °F 57.2 °F 40% 30.09 in 10.0 mi SE 3.5 mph - N/A   Clear
1:55 PM 86.0 °F 84.9 °F 57.2 °F 37% 30.08 in 10.0 mi SSW 6.9 mph - N/A   Clear
2:10 PM 86.0 °F 84.5 °F 55.4 °F 35% 30.07 in 10.0 mi Calm Calm - N/A   Clear
2:30 PM 86.0 °F 84.5 °F 55.4 °F 35% 30.07 in 10.0 mi South 5.8 mph - N/A   Clear
2:50 PM 87.8 °F 86.1 °F 55.4 °F 33% 30.05 in 10.0 mi SSE 13.8 mph - N/A   Clear
3:10 PM 87.8 °F 86.1 °F 55.4 °F 33% 30.05 in 10.0 mi ESE 11.5 mph - N/A   Clear
3:30 PM 87.8 °F 86.1 °F 55.4 °F 33% 30.04 in 10.0 mi ESE 3.5 mph - N/A Rain Light Rain
3:50 PM 89.6 °F 87.3 °F 53.6 °F 29% 30.03 in 10.0 mi ESE 3.5 mph - N/A Rain Light Rain
4:10 PM 89.6 °F 87.7 °F 55.4 °F 31% 30.03 in 10.0 mi South 5.8 mph - N/A Rain Light Rain
4:30 PM 89.6 °F 87.7 °F 55.4 °F 31% 30.03 in 10.0 mi South 8.1 mph - N/A Rain Light Rain
4:50 PM 91.4 °F 89.1 °F 53.6 °F 28% 30.02 in 10.0 mi SSW 9.2 mph - N/A   Clear
5:10 PM 89.6 °F 87.3 °F 53.6 °F 29% 30.02 in 10.0 mi SSE 6.9 mph - N/A   Clear
5:30 PM 91.4 °F 89.1 °F 53.6 °F 28% 30.01 in 10.0 mi SSE 9.2 mph - N/A   Clear
5:55 PM 89.6 °F 87.3 °F 53.6 °F 29% 30.01 in 10.0 mi South 9.2 mph - N/A   Clear
6:10 PM 89.6 °F 87.3 °F 53.6 °F 29% 30.01 in 10.0 mi SSW 11.5 mph - N/A   Clear
6:30 PM 89.6 °F 87.3 °F 53.6 °F 29% 30.01 in 10.0 mi SSW 9.2 mph - N/A   Clear
6:50 PM 89.6 °F 87.3 °F 53.6 °F 29% 30.01 in 10.0 mi SSW 9.2 mph - N/A   Clear
7:10 PM 89.6 °F 87.7 °F 55.4 °F 31% 30.00 in 10.0 mi SSW 8.1 mph - N/A   Clear
7:30 PM 87.8 °F 86.1 °F 55.4 °F 33% 30.01 in 10.0 mi South 10.4 mph - N/A   Clear
7:50 PM 86.0 °F 84.5 °F 55.4 °F 35% 30.01 in 10.0 mi South 5.8 mph - N/A   Clear
8:10 PM 82.4 °F 81.7 °F 55.4 °F 39% 30.01 in 10.0 mi South 5.8 mph - N/A   Clear
8:30 PM 82.4 °F 81.7 °F 55.4 °F 39% 30.02 in 10.0 mi SE 5.8 mph - N/A   Clear
8:55 PM 78.8 °F - 55.4 °F 44% 30.02 in 10.0 mi SE 5.8 mph - N/A   Partly Cloudy
9:10 PM 78.8 °F - 55.4 °F 44% 30.03 in 10.0 mi SE 6.9 mph - N/A   Clear
9:30 PM 77.0 °F - 55.4 °F 47% 30.03 in 10.0 mi ESE 6.9 mph - N/A   Partly Cloudy
9:50 PM 77.0 °F - 55.4 °F 47% 30.04 in 10.0 mi SE 8.1 mph - N/A   Partly Cloudy
10:10 PM 75.2 °F - 53.6 °F 47% 30.05 in 10.0 mi ESE 10.4 mph - N/A   Partly Cloudy
10:30 PM 75.2 °F - 53.6 °F 47% 30.05 in 10.0 mi SE 8.1 mph - N/A   Mostly Cloudy
10:50 PM 73.4 °F - 53.6 °F 50% 30.06 in 10.0 mi SE 10.4 mph - N/A   Mostly Cloudy
11:10 PM 73.4 °F - 53.6 °F 50% 30.06 in 10.0 mi SE 10.4 mph - N/A   Overcast
11:30 PM 71.6 °F - 53.6 °F 53% 30.06 in 10.0 mi SE 9.2 mph - N/A   Overcast
11:50 PM 71.6 °F - 55.4 °F 57% 30.06 in 10.0 mi SSE 8.1 mph - N/A   Overcast